Powrót do katalogu

IRIDIUM 110

AktywnyŁącznośćPO
NORAD 43481·PAYLOAD·🇺🇸 United States

Wystrzelony May 22, 2018 z Vandenberg Space Force Base

Loading…

Następne Przeloty (najbliższe 24 godziny)

TLE

ŚwieżeSource: CelesTrak SupGP

Epoka: Sep 14, 2026, 21:16 UTC

1 43481C 18047F   26257.88645833  .00003396  00000+0  12141-2 0  2575
2 43481  86.3948  50.8946 0002397  98.2503 157.9632 14.34215509    18

Śledź IRIDIUM 110 w czasie rzeczywistym z AllMySat

Download on the App Store